Location: Gälforsberget
(66.6500°N, 22.4167°E)
Time: 08:45:59
(UTC+00:00)

Cosmos 2341 Rocket - Pass Details

Date: 11 April 2026
Orbit: 968 x 1002 km, 82.9° (Epoch: 9 May)

Event Time Altitude Azimuth Distance (km) Brightness Sun altitude
Rises 19:05:06 0° 176° (S) 3,670 6.6 -6.2°
Reaches altitude 10° 19:07:37 10° 173° (S) 2,730 5.9 -6.4°
Maximum altitude 19:13:44 59° 96° (E) 1,133 4.1 -6.8°
Drops below altitude 10° 19:19:56 10° 19° (NNE) 2,768 6.7 -7.3°
Sets 19:22:31 0° 16° (NNE) 3,725 7.4 -7.5°
